SCP
-0 -0 -0 -0 -0 -0 -0 -0 -0 -0 -0 -0 -0 -0 0 0 -0 -0 0 -0 -0 -0 -0 -0 -0 -0 -0 0 0 0 0 0 0 -0 0 0 0 0 0 0 0 0 0 0 0
-0 -0 -0 0 0 0 0 0 -0 -0 -0 -0 -0 -0 -0 -0 -0 0 -0 -0 -0 -0 -0 -0 0 -0 -0 0 0 0 0 0 -0 0 0 0 0 0 0 0 0 0 0 0 0
-0 0 0 0 0 0 -0 -0 -0 -0 -0 -0 -0 -0 -0 -0 -0 0 0 -0 -0 -0 -0 -0 -0 -0 -0 -0 -0 0 0 0 0 0 0 0 0 0 0 0 0 0 0 0 0
-0 -0 0 0 0 0 0 -0 -0 0 -0 -0 -0 -0 -0 -0 -0 0 0 -0 0 -0 -0 -0 -0 -0 -0 -0 0 0 0 0 0 0 0 0 0 0 0 0 0 0 0 0 0
-0 -0 -0 -0 -0 -0 -0 -0 -0 -0 0 -0 -0 -0 -0 0 0 0 0 0 0 0 -0 -0 -0 0 -0 0 0 -0 -0 0 0 0 0 0 0 0 0 0 0 0 0 0 0
-0 -0 -0 -0 -0 -0 -0 -0 -0 -0 0 -0 -0 -0 0 0 0 0 0 0 -0 -0 -0 0 0 0 0 0 0 0 0 0 0 0 0 0 0 0 0 0 0 0 0 0 0
-0 -0 -0 -0 -0 -0 -0 -0 0 -0 -0 -0 -0 0 0 0 0 0 0 0 0 -0 -0 0 0 0 0 0 0 0 0 0 0 -0 -0 0 0 -0 -0 -0 -0 -0 0 0 0
-0 -0 -0 -0 -0 -0 -0 0 0 -0 -0 0 0 0 0 0 -0 0 -0 -0 0 0 0 0 0 0 0 0 0 0 -0 -0 -0 0 0 0 -0 -0 0 0 0 0 0 0 0
-0 -0 -0 -0 -0 0 0 0 0 -0 -0 -0 0 0 0 0 0 0 0 0 -0 0 0 0 0 0 0 0 0 -0 0 0 0 0 0 0 0 0 0 0 0 0 0 0 0
-0 -0 -0 -0 -0 0 -0 0 -0 -0 0 0 0 -0 0 0 0 0 0 0 0 0 0 0 0 0 0 0 0 0 0 0 0 0 0 0 0 0 0 0 0 0 0 0 0
-0 -0 -0 -0 0 -0 -0 0 0 0 0 -0 -0 -0 0 0 0 0 0 0 0 0 0 0 0 0 0 0 0 0 0 0 0 0 0 0 0 0 0 0 0 0 0 0 0
-0 -0 -0 -0 -0 -0 0 0 0 0 0 0 0 0 0 0 0 0 0 0 0 0 0 0 0 0 0 0 0 0 0 0 0 0 0 0 0 0 0 0 0 0 0 0 0
-0 -0 -0 -0 -0 -0 0 0 -0 0 0 0 0 0 0 0 0 0 0 0 0 0 0 0 0 0 0 0 0 0 0 0 0 -0 -0 0 0 0 -0 0 0 -0 -0 0 0
-0 -0 -0 -0 0 0 0 -0 0 0 0 0 0 0 0 0 0 0 0 0 0 0 0 0 0 0 0 0 0 0 0 0 0 0 0 0 -0 -0 -0 -0 0 -0 0 -0 0
-0 -0 -0 -0 -0 0 0 0 -0 0 0 0 0 0 0 0 0 0 0 0 0 0 0 0 0 0 0 0 0 0 0 0 0 0 0 -0 0 -0 -0 -0 0 0 0 0 0
-0 -0 0 0 0 0 -0 0 0 0 0 0 0 0 0 0 0 0 0 0 0 0 0 0 0 0 0 0 0 0 0 0 0 0 0 -0 -0 0 -0 0 0 0 -0 0 0
-0 -0 -0 -0 0 0 -0 0 0 0 0 0 0 0 0 0 0 0 0 0 0 0 0 0 0 0 0 0 0 0 0 0 0 0 0 0 0 -0 -0 0 0 0 0 0 0
-0 0 0 -0 -0 -0 0 0 0 0 0 0 0 0 0 0 0 0 0 0 0 0 0 0 0 0 0 0 0 0 0 0 0 0 -0 -0 -0 0 0 -0 0 0 0 0 0
-0 0 0 0 0 0 0 0 0 0 0 0 0 0 0 0 0 0 0 0 0 0 0 0 0 0 0 0 0 0 0 -0 0 0 -0 0 -0 0 0 0 0 0 0 0 0
0 -0 0 0 0 0 0 0 0 0 0 0 0 0 0 0 0 0 0 0 0 0 0 0 0 0 0 0 0 0 0 0 0 0 0 0 0 -0 0 0 0 0 -0 0 0
0 0 0 0 0 0 0 0 0 0 0 0 0 0 0 0 0 0 0 0 0 0 0 0 0 0 0 0 0 0 0 0 0 0 0 0 0 0 0 0 -0 0 0 -0 0
0 0 0 0 0 0 0 0 0 0 0 0 0 0 0 0 0 0 0 0 0 0 0 0 0 0 0 0 0 -0 0 -0 0 0 0 0 -0 0 0 0 0 0 0 0 0
-0 -0 0 0 0 0 0 0 0 0 0 0 0 0 0 0 0 0 0 0 0 0 0 0 0 0 0 0 0 -0 0 0 0 0 0 0 -0 0 -0 0 0 0 0 0 0
-0 0 0 0 0 0 0 0 0 0 0 0 0 0 0 0 0 0 0 0 0 0 0 0 0 0 0 0 0 0 -0 0 0 0 -0 -0 -0 -0 -0 0 0 0 -0 0 0
0 0 0 0 0 0 0 0 0 0 0 0 0 0 0 0 0 0 0 0 0 -0 0 0 0 0 0 0 0 0 0 0 0 0 -0 0 -0 -0 -0 0 0 0 0 0 0
0 0 0 0 0 0 0 0 0 0 0 0 0 0 0 0 0 0 0 0 0 0 0 0 0 0 0 0 0 0 -0 -0 -0 -0 -0 0 -0 0 0 0 0 0 0 0 0
0 0 0 0 0 0 0 0 0 0 0 0 0 0 0 0 0 0 0 0 0 0 0 0 0 0 0 0 0 0 -0 0 -0 0 0 0 0 0 0 0 0 0 0 0 0
Wind_Speed_500mb
24 20 18 17 16 17 18 17 16 14 12 10 12 19 33 31 24 19 12 7 10 14 14 14 10 12 15 20 17 26 20 26 36 40 29 43 7 13 8 9 30 27 31 37 28
26 18 17 15 15 16 18 15 15 14 10 9 17 32 30 25 25 14 8 6 5 6 18 13 9 12 21 12 11 15 21 33 31 25 26 45 35 29 18 25 25 28 36 41 35
28 18 16 16 15 15 18 14 13 16 12 16 28 33 24 10 2 9 15 12 17 6 12 15 14 17 21 19 23 15 25 35 47 33 31 43 40 33 32 28 35 43 37 40 32
30 19 17 16 15 15 19 15 13 14 16 23 30 26 12 7 4 2 20 20 18 19 14 16 18 20 21 20 14 18 32 36 39 32 40 30 47 39 41 45 46 46 45 38 34
31 20 16 15 15 16 17 13 12 16 22 27 25 15 3 3 13 3 12 19 21 15 13 17 14 21 22 29 21 29 31 33 28 31 35 40 41 45 50 51 50 53 51 51 45
30 22 16 14 15 16 15 10 13 18 20 20 11 2 14 0 5 3 11 11 11 13 12 14 18 22 21 25 24 37 34 39 43 46 45 41 42 47 49 50 52 53 51 55 56
29 23 15 14 16 18 12 9 15 17 21 16 8 10 5 9 2 7 9 11 11 12 15 15 18 19 31 31 25 33 36 37 43 53 44 27 31 38 54 53 51 49 47 49 52
29 23 14 14 18 20 9 11 14 16 17 12 7 8 5 4 11 8 12 18 14 13 13 15 18 25 26 35 41 39 41 34 38 31 25 32 33 35 44 46 52 27 40 43 43
26 23 15 14 19 18 12 12 11 11 12 8 3 11 5 10 4 9 13 18 20 20 23 22 21 24 29 28 27 35 33 41 42 34 31 31 43 42 46 42 52 42 44 46 44
25 19 14 13 20 15 14 8 9 12 5 9 16 18 7 5 8 12 10 18 18 20 26 31 39 27 25 25 30 48 47 47 51 46 50 49 52 50 66 59 54 60 59 56 59
25 15 10 12 17 16 6 14 10 10 18 21 11 10 1 7 10 13 10 21 27 22 29 25 23 26 36 33 38 39 46 49 50 49 47 50 49 44 55 54 49 58 58 54 52
26 11 6 9 11 13 16 13 12 15 19 19 12 14 8 10 21 6 12 23 28 27 32 26 28 29 40 38 40 43 48 51 50 50 45 42 46 47 51 51 61 61 64 61 57
27 9 8 4 7 7 6 17 17 14 14 24 16 15 7 10 14 13 14 21 28 24 28 30 40 32 24 34 41 41 41 44 51 51 46 46 49 42 52 43 42 78 68 56 48
28 7 4 1 6 8 4 21 18 9 9 22 17 7 12 14 19 10 12 14 21 26 30 23 21 33 36 38 36 42 40 42 45 41 37 42 35 43 40 40 30 63 46 37 25
29 9 3 6 5 12 17 18 7 2 8 14 15 7 10 19 15 20 13 17 27 34 27 37 39 36 38 28 29 38 33 34 42 41 42 44 27 38 41 37 22 19 15 9 14
31 8 8 3 6 13 17 13 3 11 6 14 3 9 19 20 26 10 23 23 36 37 26 40 44 36 30 22 30 37 40 40 40 35 34 41 25 35 7 17 22 16 37 13 5
26 4 13 9 9 18 12 9 11 12 6 7 8 23 26 32 11 18 18 23 26 30 29 35 38 26 12 25 27 35 33 23 25 22 16 18 19 16 28 28 25 25 18 11 1
21 2 4 9 13 17 11 15 14 14 23 21 21 34 36 6 16 22 28 28 25 25 24 27 29 30 28 35 46 41 30 23 43 33 38 33 18 18 23 53 20 8 7 10 9
13 11 3 2 15 11 15 14 8 19 18 21 31 30 20 2 13 27 27 31 15 11 13 24 17 51 44 34 17 25 24 33 22 30 30 31 44 29 37 39 16 6 8 9 16
19 3 9 6 12 4 13 25 17 8 16 19 25 20 25 29 27 26 25 21 8 7 9 21 44 29 35 39 26 34 34 24 11 12 21 23 14 5 23 26 32 26 36 6 4
15 12 4 9 8 13 16 18 14 17 14 14 22 32 33 33 29 31 21 33 17 15 20 28 26 39 39 32 41 34 20 24 20 13 13 26 10 11 9 11 27 27 44 58 53
8 11 3 12 18 26 11 9 8 20 15 23 23 25 27 29 29 32 32 34 12 11 22 26 16 32 48 52 52 42 36 34 14 21 20 13 19 33 19 16 28 39 35 41 40
17 20 5 10 10 16 28 25 31 15 20 20 22 34 31 26 20 16 29 35 37 30 11 18 8 23 33 19 27 36 41 27 32 20 22 24 23 36 28 31 41 29 46 50 40
16 9 9 25 12 8 24 29 22 22 16 18 22 34 32 33 30 27 44 45 55 38 19 13 13 32 29 41 42 47 50 50 42 22 32 38 50 40 39 34 41 16 26 42 42
12 11 9 12 24 35 24 26 31 28 17 16 20 29 31 36 42 45 44 45 53 64 38 17 20 34 38 45 45 53 58 54 48 51 42 50 46 44 40 28 31 38 35 35 34
17 16 23 41 29 22 21 26 28 23 25 29 36 35 29 32 39 50 50 43 44 37 34 16 8 24 35 39 49 56 55 59 52 50 42 34 37 22 29 24 25 36 41 35 30
24 21 22 23 32 25 19 22 26 36 30 25 34 34 37 41 52 56 62 67 54 46 37 27 8 16 47 40 44 40 41 27 34 22 22 28 25 36 40 38 39 47 41 37 41
Wind_Direction_500mb
22 33 39 48 54 56 48 34 33 28 24 36 63 101 110 102 87 54 45 80 73 78 47 16 270 306 273 256 256 268 266 266 269 270 315 321 222 185 330 288 293 294 284 281 313
24 39 47 58 64 63 40 34 39 20 29 70 106 125 122 114 95 62 43 27 63 50 18 351 345 311 270 253 258 247 271 263 275 351 326 316 344 354 327 298 266 257 276 261 276
24 45 55 66 72 55 33 36 27 37 53 100 128 134 133 90 133 42 354 27 43 68 5 333 325 294 290 263 275 251 281 306 302 334 325 311 312 311 302 278 272 280 276 281 281
27 47 59 71 69 46 30 37 42 56 88 120 136 142 149 296 38 6 75 69 42 23 346 321 318 297 287 292 300 282 291 291 298 298 307 300 306 301 291 286 285 283 284 284 277
27 41 52 60 55 38 29 39 75 86 107 128 148 150 208 97 57 49 36 12 15 336 339 349 333 339 306 327 311 281 287 281 303 288 275 279 277 286 283 282 280 273 268 269 264
23 32 44 47 39 24 23 58 102 108 123 131 129 273 282 183 65 352 358 330 341 349 339 349 343 328 288 298 301 293 295 300 290 280 276 273 271 282 278 282 276 266 259 264 263
17 21 30 32 25 16 26 94 119 115 131 127 100 24 47 58 175 316 321 324 324 327 327 338 329 316 317 301 298 317 294 283 273 264 251 254 279 267 276 278 265 253 259 257 256
12 13 22 23 20 14 55 108 137 129 139 126 82 33 80 23 243 311 320 319 282 303 296 309 318 304 285 293 281 275 272 272 271 275 227 216 254 258 286 282 290 249 252 258 259
11 10 19 24 21 23 85 90 130 140 136 132 328 277 121 289 228 321 316 323 306 297 284 276 288 284 282 273 283 273 276 298 316 311 297 298 286 294 273 273 277 263 260 261 253
10 14 23 27 29 58 90 90 130 137 167 265 275 269 192 316 324 306 320 313 305 300 290 262 238 259 260 278 301 315 305 302 300 299 306 303 290 284 281 273 273 273 255 247 243
6 10 23 37 50 69 354 324 278 242 218 282 332 299 99 341 282 283 319 312 289 273 279 310 308 288 284 281 284 300 300 296 294 297 289 279 281 308 299 280 265 262 264 259 256
1 356 359 36 54 49 26 329 2 316 298 238 250 274 274 301 295 267 321 316 327 297 301 286 284 314 328 316 306 303 297 292 290 287 284 292 286 278 271 278 271 264 260 256 252
357 342 346 345 71 30 9 357 329 320 269 202 221 268 263 286 308 273 328 320 309 302 313 312 295 306 312 299 303 299 296 297 297 304 297 293 284 295 300 327 264 254 245 245 252
351 319 335 2 354 358 303 337 334 305 269 150 222 207 259 280 243 261 288 309 298 315 317 296 292 325 313 301 301 300 316 314 302 297 290 301 297 278 272 250 203 272 220 228 246
342 295 222 347 325 7 326 325 320 255 280 158 119 150 258 250 279 155 224 265 284 302 297 287 302 302 298 313 329 301 299 295 293 288 281 272 266 271 277 291 301 219 91 2 291
340 291 183 7 356 341 326 309 318 237 227 152 179 244 265 288 302 310 280 283 294 276 271 273 287 287 295 321 303 284 283 289 291 286 268 279 334 281 287 330 38 36 252 186 149
344 276 198 193 328 326 323 283 248 253 159 83 350 317 309 292 332 300 312 289 295 297 299 307 298 318 313 292 296 309 314 308 300 284 306 42 342 255 284 217 191 199 317 357 121
355 149 172 231 306 313 314 263 267 27 17 356 321 308 279 260 303 274 292 293 286 303 296 295 308 317 346 320 301 293 275 277 291 293 294 304 265 257 271 197 181 49 326 276 250
10 30 287 249 302 304 280 254 323 9 357 330 313 299 327 303 298 321 302 312 330 343 297 318 278 322 305 299 317 318 310 297 284 280 275 271 262 349 11 350 74 158 334 51 56
11 220 202 307 303 281 258 266 308 6 329 313 301 291 311 318 311 308 313 305 315 274 272 294 296 295 303 302 262 254 271 297 271 287 290 305 333 288 28 9 333 355 330 6 130
4 276 133 342 278 254 253 297 350 347 331 312 316 315 309 311 312 308 295 301 3 355 334 310 290 294 306 291 291 302 290 264 283 273 272 291 297 129 135 220 288 300 358 354 354
12 300 355 339 257 236 277 26 336 312 301 280 275 285 295 311 308 300 303 299 69 355 302 299 299 291 298 292 274 263 272 311 286 275 271 275 264 273 357 11 5 319 334 327 331
324 292 252 349 303 338 336 317 308 278 302 314 297 305 300 298 305 276 291 296 298 283 261 313 260 301 308 289 8 327 316 299 303 313 272 281 273 308 321 305 294 290 317 317 310
310 315 349 316 238 308 327 312 314 321 270 302 305 304 292 288 283 288 299 308 306 294 236 233 245 250 263 280 299 298 300 299 292 284 280 270 289 286 288 307 315 288 280 274 272
328 349 352 297 324 324 307 300 302 299 309 285 289 293 300 307 301 297 300 302 300 296 295 201 243 248 258 274 278 281 280 276 273 267 262 279 297 311 296 310 310 303 298 308 293
351 342 322 294 290 303 279 278 289 311 337 314 311 313 302 299 295 299 305 299 296 301 294 309 290 285 283 279 287 286 283 276 265 267 263 284 264 333 309 288 286 296 297 291 283
345 324 304 288 292 289 296 322 311 313 301 297 317 319 308 304 317 304 292 283 275 276 270 271 230 273 275 291 298 292 289 283 298 258 251 306 327 324 307 296 292 293 291 300 293
Wind_Speed_850mb
24 20 18 17 16 17 18 17 16 14 12 10 12 19 33 31 24 19 12 7 10 14 14 14 10 12 15 20 17 26 20 26 36 40 29 43 7 13 8 9 30 27 31 37 28
26 18 17 15 15 16 18 15 15 14 10 9 17 32 30 25 25 14 8 6 5 6 18 13 9 12 21 12 11 15 21 33 31 25 26 45 35 29 18 25 25 28 36 41 35
28 18 16 16 15 15 18 14 13 16 12 16 28 33 24 10 2 9 15 12 17 6 12 15 14 17 21 19 23 15 25 35 47 33 31 43 40 33 32 28 35 43 37 40 32
30 19 17 16 15 15 19 15 13 14 16 23 30 26 12 7 4 2 20 20 18 19 14 16 18 20 21 20 14 18 32 36 39 32 40 30 47 39 41 45 46 46 45 38 34
31 20 16 15 15 16 17 13 12 16 22 27 25 15 3 3 13 3 12 19 21 15 13 17 14 21 22 29 21 29 31 33 28 31 35 40 41 45 50 51 50 53 51 51 45
30 22 16 14 15 16 15 10 13 18 20 20 11 2 14 0 5 3 11 11 11 13 12 14 18 22 21 25 24 37 34 39 43 46 45 41 42 47 49 50 52 53 51 55 56
29 23 15 14 16 18 12 9 15 17 21 16 8 10 5 9 2 7 9 11 11 12 15 15 18 19 31 31 25 33 36 37 43 53 44 27 31 38 54 53 51 49 47 49 52
29 23 14 14 18 20 9 11 14 16 17 12 7 8 5 4 11 8 12 18 14 13 13 15 18 25 26 35 41 39 41 34 38 31 25 32 33 35 44 46 52 27 40 43 43
26 23 15 14 19 18 12 12 11 11 12 8 3 11 5 10 4 9 13 18 20 20 23 22 21 24 29 28 27 35 33 41 42 34 31 31 43 42 46 42 52 42 44 46 44
25 19 14 13 20 15 14 8 9 12 5 9 16 18 7 5 8 12 10 18 18 20 26 31 39 27 25 25 30 48 47 47 51 46 50 49 52 50 66 59 54 60 59 56 59
25 15 10 12 17 16 6 14 10 10 18 21 11 10 1 7 10 13 10 21 27 22 29 25 23 26 36 33 38 39 46 49 50 49 47 50 49 44 55 54 49 58 58 54 52
26 11 6 9 11 13 16 13 12 15 19 19 12 14 8 10 21 6 12 23 28 27 32 26 28 29 40 38 40 43 48 51 50 50 45 42 46 47 51 51 61 61 64 61 57
27 9 8 4 7 7 6 17 17 14 14 24 16 15 7 10 14 13 14 21 28 24 28 30 40 32 24 34 41 41 41 44 51 51 46 46 49 42 52 43 42 78 68 56 48
28 7 4 1 6 8 4 21 18 9 9 22 17 7 12 14 19 10 12 14 21 26 30 23 21 33 36 38 36 42 40 42 45 41 37 42 35 43 40 40 30 63 46 37 25
29 9 3 6 5 12 17 18 7 2 8 14 15 7 10 19 15 20 13 17 27 34 27 37 39 36 38 28 29 38 33 34 42 41 42 44 27 38 41 37 22 19 15 9 14
31 8 8 3 6 13 17 13 3 11 6 14 3 9 19 20 26 10 23 23 36 37 26 40 44 36 30 22 30 37 40 40 40 35 34 41 25 35 7 17 22 16 37 13 5
26 4 13 9 9 18 12 9 11 12 6 7 8 23 26 32 11 18 18 23 26 30 29 35 38 26 12 25 27 35 33 23 25 22 16 18 19 16 28 28 25 25 18 11 1
21 2 4 9 13 17 11 15 14 14 23 21 21 34 36 6 16 22 28 28 25 25 24 27 29 30 28 35 46 41 30 23 43 33 38 33 18 18 23 53 20 8 7 10 9
13 11 3 2 15 11 15 14 8 19 18 21 31 30 20 2 13 27 27 31 15 11 13 24 17 51 44 34 17 25 24 33 22 30 30 31 44 29 37 39 16 6 8 9 16
19 3 9 6 12 4 13 25 17 8 16 19 25 20 25 29 27 26 25 21 8 7 9 21 44 29 35 39 26 34 34 24 11 12 21 23 14 5 23 26 32 26 36 6 4
15 12 4 9 8 13 16 18 14 17 14 14 22 32 33 33 29 31 21 33 17 15 20 28 26 39 39 32 41 34 20 24 20 13 13 26 10 11 9 11 27 27 44 58 53
8 11 3 12 18 26 11 9 8 20 15 23 23 25 27 29 29 32 32 34 12 11 22 26 16 32 48 52 52 42 36 34 14 21 20 13 19 33 19 16 28 39 35 41 40
17 20 5 10 10 16 28 25 31 15 20 20 22 34 31 26 20 16 29 35 37 30 11 18 8 23 33 19 27 36 41 27 32 20 22 24 23 36 28 31 41 29 46 50 40
16 9 9 25 12 8 24 29 22 22 16 18 22 34 32 33 30 27 44 45 55 38 19 13 13 32 29 41 42 47 50 50 42 22 32 38 50 40 39 34 41 16 26 42 42
12 11 9 12 24 35 24 26 31 28 17 16 20 29 31 36 42 45 44 45 53 64 38 17 20 34 38 45 45 53 58 54 48 51 42 50 46 44 40 28 31 38 35 35 34
17 16 23 41 29 22 21 26 28 23 25 29 36 35 29 32 39 50 50 43 44 37 34 16 8 24 35 39 49 56 55 59 52 50 42 34 37 22 29 24 25 36 41 35 30
24 21 22 23 32 25 19 22 26 36 30 25 34 34 37 41 52 56 62 67 54 46 37 27 8 16 47 40 44 40 41 27 34 22 22 28 25 36 40 38 39 47 41 37 41
Wind_Direction_850mb
22 33 39 48 54 56 48 34 33 28 24 36 63 101 110 102 87 54 45 80 73 78 47 16 270 306 273 256 256 268 266 266 269 270 315 321 222 185 330 288 293 294 284 281 313
24 39 47 58 64 63 40 34 39 20 29 70 106 125 122 114 95 62 43 27 63 50 18 351 345 311 270 253 258 247 271 263 275 351 326 316 344 354 327 298 266 257 276 261 276
24 45 55 66 72 55 33 36 27 37 53 100 128 134 133 90 133 42 354 27 43 68 5 333 325 294 290 263 275 251 281 306 302 334 325 311 312 311 302 278 272 280 276 281 281
27 47 59 71 69 46 30 37 42 56 88 120 136 142 149 296 38 6 75 69 42 23 346 321 318 297 287 292 300 282 291 291 298 298 307 300 306 301 291 286 285 283 284 284 277
27 41 52 60 55 38 29 39 75 86 107 128 148 150 208 97 57 49 36 12 15 336 339 349 333 339 306 327 311 281 287 281 303 288 275 279 277 286 283 282 280 273 268 269 264
23 32 44 47 39 24 23 58 102 108 123 131 129 273 282 183 65 352 358 330 341 349 339 349 343 328 288 298 301 293 295 300 290 280 276 273 271 282 278 282 276 266 259 264 263
17 21 30 32 25 16 26 94 119 115 131 127 100 24 47 58 175 316 321 324 324 327 327 338 329 316 317 301 298 317 294 283 273 264 251 254 279 267 276 278 265 253 259 257 256
12 13 22 23 20 14 55 108 137 129 139 126 82 33 80 23 243 311 320 319 282 303 296 309 318 304 285 293 281 275 272 272 271 275 227 216 254 258 286 282 290 249 252 258 259
11 10 19 24 21 23 85 90 130 140 136 132 328 277 121 289 228 321 316 323 306 297 284 276 288 284 282 273 283 273 276 298 316 311 297 298 286 294 273 273 277 263 260 261 253
10 14 23 27 29 58 90 90 130 137 167 265 275 269 192 316 324 306 320 313 305 300 290 262 238 259 260 278 301 315 305 302 300 299 306 303 290 284 281 273 273 273 255 247 243
6 10 23 37 50 69 354 324 278 242 218 282 332 299 99 341 282 283 319 312 289 273 279 310 308 288 284 281 284 300 300 296 294 297 289 279 281 308 299 280 265 262 264 259 256
1 356 359 36 54 49 26 329 2 316 298 238 250 274 274 301 295 267 321 316 327 297 301 286 284 314 328 316 306 303 297 292 290 287 284 292 286 278 271 278 271 264 260 256 252
357 342 346 345 71 30 9 357 329 320 269 202 221 268 263 286 308 273 328 320 309 302 313 312 295 306 312 299 303 299 296 297 297 304 297 293 284 295 300 327 264 254 245 245 252
351 319 335 2 354 358 303 337 334 305 269 150 222 207 259 280 243 261 288 309 298 315 317 296 292 325 313 301 301 300 316 314 302 297 290 301 297 278 272 250 203 272 220 228 246
342 295 222 347 325 7 326 325 320 255 280 158 119 150 258 250 279 155 224 265 284 302 297 287 302 302 298 313 329 301 299 295 293 288 281 272 266 271 277 291 301 219 91 2 291
340 291 183 7 356 341 326 309 318 237 227 152 179 244 265 288 302 310 280 283 294 276 271 273 287 287 295 321 303 284 283 289 291 286 268 279 334 281 287 330 38 36 252 186 149
344 276 198 193 328 326 323 283 248 253 159 83 350 317 309 292 332 300 312 289 295 297 299 307 298 318 313 292 296 309 314 308 300 284 306 42 342 255 284 217 191 199 317 357 121
355 149 172 231 306 313 314 263 267 27 17 356 321 308 279 260 303 274 292 293 286 303 296 295 308 317 346 320 301 293 275 277 291 293 294 304 265 257 271 197 181 49 326 276 250
10 30 287 249 302 304 280 254 323 9 357 330 313 299 327 303 298 321 302 312 330 343 297 318 278 322 305 299 317 318 310 297 284 280 275 271 262 349 11 350 74 158 334 51 56
11 220 202 307 303 281 258 266 308 6 329 313 301 291 311 318 311 308 313 305 315 274 272 294 296 295 303 302 262 254 271 297 271 287 290 305 333 288 28 9 333 355 330 6 130
4 276 133 342 278 254 253 297 350 347 331 312 316 315 309 311 312 308 295 301 3 355 334 310 290 294 306 291 291 302 290 264 283 273 272 291 297 129 135 220 288 300 358 354 354
12 300 355 339 257 236 277 26 336 312 301 280 275 285 295 311 308 300 303 299 69 355 302 299 299 291 298 292 274 263 272 311 286 275 271 275 264 273 357 11 5 319 334 327 331
324 292 252 349 303 338 336 317 308 278 302 314 297 305 300 298 305 276 291 296 298 283 261 313 260 301 308 289 8 327 316 299 303 313 272 281 273 308 321 305 294 290 317 317 310
310 315 349 316 238 308 327 312 314 321 270 302 305 304 292 288 283 288 299 308 306 294 236 233 245 250 263 280 299 298 300 299 292 284 280 270 289 286 288 307 315 288 280 274 272
328 349 352 297 324 324 307 300 302 299 309 285 289 293 300 307 301 297 300 302 300 296 295 201 243 248 258 274 278 281 280 276 273 267 262 279 297 311 296 310 310 303 298 308 293
351 342 322 294 290 303 279 278 289 311 337 314 311 313 302 299 295 299 305 299 296 301 294 309 290 285 283 279 287 286 283 276 265 267 263 284 264 333 309 288 286 296 297 291 283
345 324 304 288 292 289 296 322 311 313 301 297 317 319 308 304 317 304 292 283 275 276 270 271 230 273 275 291 298 292 289 283 298 258 251 306 327 324 307 296 292 293 291 300 293